Nenana, AK

9:38 AM AKDT on September 26, 2016 (GMT -0800)
Nenana Municipal

Weather History for PANN - July, 2013

Change the Weather History Date:

Friday, July 26, 2013

  Actual Average Record
Temperature  
Mean Temperature 65 °F -  
Max Temperature 77 °F 69 °F 84 °F (1971)
Min Temperature 55 °F 48 °F 46 °F (1974)
Growing Degree Days 15 (Base 50)    
Moisture  
Dew Point 50 °F    
Average Humidity 64    
Maximum Humidity 95    
Minimum Humidity 39    
Precipitation  
Precipitation 0.00 in - - ()
Sea Level Pressure  
Sea Level Pressure 30.15 in    
Wind  
Wind Speed 2 mph (West)    
Max Wind Speed 9 mph    
Max Gust Speed 21 mph    
Visibility 10 miles    
Events Rain    
Averages and records for this station are not official NWS values.
T = Trace of Precipitation, MM = Missing Value Source: NWS Daily Summary

Daily Weather History Graph

Daily Weather History Graph

Search for Another Location

Airport or City:

Trip Planner

Search our weather history database for the weather conditions in past years. The results will help you decide how hot, cold, wet, or windy it might be!

Date:

Astronomy

Jul. 26, 2013 Rise Set
Actual Time 4:40 AM AKDT 11:22 PM AKDT
Civil Twilight 2:24 AM AKDT 1:24 AM AKDT
Nautical Twilight Sun does not set Sun does not set
Astronomical Twilight Sun does not set Sun does not set
Moon 11:09 PM AKDT 11:50 AM AKDT
Length of Visible Light 22h 59m
Length of Day
18h 42m
Waning Gibbous, 79% of the Moon is Illuminated
Jul 26
Waning Gibbous
Jul 29
Last Quarter
Aug 6
New
Aug 14
First Quarter
Aug 20
Full

Hourly Weather History & Observations

Time (AKDT) Temp. Dew Point Humidity Pressure Visibility Wind Dir Wind Speed Gust Speed Precip Events Conditions
12:53 AM 54.0 °F 50.0 °F 86% 30.07 in 10.0 mi Calm Calm - N/A   Clear
1:53 AM 51.1 °F 48.9 °F 92% 30.08 in 10.0 mi Calm Calm - N/A   Clear
2:53 AM 50.0 °F 46.9 °F 89% 30.09 in 10.0 mi Calm Calm - N/A   Clear
3:53 AM 48.9 °F 45.0 °F 86% 30.10 in 10.0 mi Calm Calm - N/A   Clear
4:53 AM 48.9 °F 45.0 °F 86% 30.10 in 10.0 mi Calm Calm - N/A   Mostly Cloudy
5:53 AM 50.0 °F 48.0 °F 93% 30.12 in 10.0 mi Calm Calm - N/A   Scattered Clouds
6:53 AM 55.9 °F 50.0 °F 80% 30.12 in 10.0 mi Calm Calm - N/A   Mostly Cloudy
7:53 AM 59.0 °F 50.0 °F 72% 30.13 in 10.0 mi Calm Calm - N/A   Clear
8:53 AM 62.1 °F 48.0 °F 60% 30.14 in 10.0 mi WSW 4.6 mph - N/A   Partly Cloudy
9:53 AM 64.0 °F 48.9 °F 58% 30.14 in 10.0 mi Calm Calm - N/A   Clear
10:53 AM 68.0 °F 44.1 °F 42% 30.14 in 10.0 mi Variable 4.6 mph - N/A   Scattered Clouds
11:53 AM 68.0 °F 42.1 °F 39% 30.15 in 10.0 mi Variable 5.8 mph - N/A   Overcast
12:53 PM 68.0 °F 45.0 °F 43% 30.15 in 10.0 mi Variable 5.8 mph - N/A   Overcast
1:53 PM 72.0 °F 46.9 °F 41% 30.15 in 10.0 mi SW 8.1 mph 20.7 mph N/A   Mostly Cloudy
2:53 PM 71.1 °F 46.9 °F 42% 30.15 in 10.0 mi Variable 5.8 mph - N/A   Clear
3:53 PM 73.9 °F 48.9 °F 41% 30.15 in 10.0 mi Variable 5.8 mph 19.6 mph N/A   Clear
4:53 PM 75.9 °F 51.1 °F 42% 30.14 in 10.0 mi WNW 9.2 mph - N/A   Clear
5:53 PM 75.9 °F 52.0 °F 43% 30.14 in 10.0 mi Calm Calm - N/A   Clear
6:53 PM 75.0 °F 51.1 °F 43% 30.14 in 10.0 mi Variable 4.6 mph - N/A   Clear
7:53 PM 75.9 °F 53.1 °F 45% 30.14 in 10.0 mi Variable 3.5 mph - N/A   Scattered Clouds
8:53 PM 75.9 °F 53.1 °F 45% 30.14 in 10.0 mi WNW 3.5 mph - N/A   Clear
9:53 PM 73.0 °F 55.0 °F 53% 30.15 in 10.0 mi Calm Calm - N/A   Clear
10:53 PM 64.9 °F 55.9 °F 73% 30.17 in 10.0 mi Calm Calm - N/A   Clear
11:53 PM 61.0 °F 57.0 °F 87% 30.19 in 10.0 mi Calm Calm - N/A   Clear